Regional Weather Roundup
Issued by NWS

Home | Current Version | Previous Version | Text Only | Print | Product List | Glossary Off
Versions: 1 2 3 4 5 6 7 8 9 10 11 12 13 14 15 16 17 18 19 20 21 22 23 24 25 26 27 28 29 30 31 32 33 34 35 36 37 38 39 40 41 42 43 44 45 46 47 48 49 50

000
ASUS43 KLOT 231000
RWRIL

ILLINOIS REGIONAL WEATHER ROUNDUP
NATIONAL WEATHER SERVICE CHICAGO/ROMEOVILLE IL
400 AM CST SUN NOV 23 2014

NOTE: "FAIR" INDICATES FEW OR NO CLOUDS BELOW 12,000 FEET WITH NO
SIGNIFICANT WEATHER AND/OR OBSTRUCTIONS TO VISIBILITY.

* THESE STATIONS ARE NOT UNDER NWS QUALITY CONTROL. THEY ALSO MAY NOT
  REPORT WEATHER SUCH AS PRECIPITATION OR FOG.

ILZ001-002-007-009-015-016-024-231100-
NORTHWEST ILLINOIS

CITY           SKY/WX    TMP DP  RH WIND       PRES   REMARKS
MOLINE         CLOUDY    53  48  83 S16G23    29.68F
STERLING*      CLOUDY    52  46  82 S10       29.71F
$$

ILZ003-004-008-010-011-017-018-231100-
NORTH CENTRAL ILLINOIS

CITY           SKY/WX    TMP DP  RH WIND       PRES   REMARKS
ROCKFORD       CLOUDY    49  47  93 S14       29.74F FOG
FREEPORT*      CLOUDY    48  47  97 S12       29.71F FOG
DE KALB*       CLOUDY    47  46  96 S15       29.75F
$$

ILZ005-006-012>014-019>023-231100-
NORTHEAST ILLINOIS

CITY           SKY/WX    TMP DP  RH WIND       PRES   REMARKS
CHICAGO-OHARE  MOCLDY    48  44  86 S13       29.77F
CHICAGO-MIDWAY CLOUDY    50  45  83 S10       29.79F
AURORA         CLOUDY    49  44  83 S13       29.77F
WAUKEGAN       CLOUDY    49  47  93 S15       29.75F FOG
DUPAGE AIRPORT CLOUDY    49  45  86 S15       29.76F
WHEELING       CLOUDY    51  46  83 S15       29.78F
NORTHERLY ISL    N/A     50  43  77 S17         N/A
$$

LMZ740>746-231100-
SOUTHERN LAKE MICHIGAN

STATION/POSITION SKY/WX   TEMP    WIND        PRES    VSBY  WAVE
                          AIR SEA DIR/SP/G                  HT/PER
                          (F)     (DEG/KT/KT) (MB)    (MI)  (FT/S)
SOUTHERN BUOY              46 43  180/ 19/ 23 1009.0F         3/ 5
WAUKEGAN HARBOR            49     200/ 13/ 19   N/A
HARRISON CRIB              49     190/ 22/ 24   N/A
BURNHAM HARBOR             50     190/ 12/ 18   N/A
CALUMET HARBOR             49     170/ 10/ 16 1007.9F
MICHIGAN CITY              49     150/ 14/ 19   N/A
$$

ILZ025>027-034>036-040-047-049-050-058-095>099-231100-
WEST-CENTRAL ILLINOIS

CITY           SKY/WX    TMP DP  RH WIND       PRES   REMARKS
QUINCY         CLOUDY    51  47  86 S9        29.69F
$$

ILZ028>032-037-038-041>044-048-051>054-059>061-231100-
CENTRAL ILLINOIS

CITY           SKY/WX    TMP DP  RH WIND       PRES   REMARKS
DECATUR        LGT RAIN  51  43  74 S13       29.80F
PEORIA         MOCLDY    51  45  79 S9        29.75F
LINCOLN*       CLOUDY    51  44  77 S8        29.77F
SPRINGFIELD    CLOUDY    53  43  68 S15       29.76F
TAYLORVILLE    NOT AVBL
$$

ILZ033-039-045-046-055>057-062-063-231100-
EAST-CENTRAL ILLINOIS

CITY           SKY/WX    TMP DP  RH WIND       PRES   REMARKS
CHAMPAIGN      CLOUDY    48  42  80 S12       29.83F
MATTOON        CLOUDY    49  39  68 S13       29.83F
$$

ILZ079-100>102-231100-
SOUTHWEST ILLINOIS

CITY           SKY/WX    TMP DP  RH WIND       PRES   REMARKS
CAHOKIA*       MOCLDY    50  42  74 SE7       29.77F
$$

ILZ064>066-069>071-074>076-080>082-084>086-088>090-092>094-231100-
SOUTH-CENTRAL ILLINOIS

CITY           SKY/WX    TMP DP  RH WIND       PRES   REMARKS
CARBONDALE     MOCLDY    51  42  71 SE7       29.83F
MT. VERNON     PTCLDY    50  39  66 SE3       29.83F
$$

ILZ067-068-072-073-078-083-087-091-231100-
SOUTHEAST ILLINOIS

CITY           SKY/WX    TMP DP  RH WIND       PRES   REMARKS
LAWRENCEVILLE  MOCLDY    48  40  73 S12       29.90F
$$

ABBREVIATIONS USED IN REMARKS
   TC - TEMPERATURE IN CELSIUS
  WCI - WIND CHILL INDEX
   HX - HEAT INDEX
  VSB - VISIBILITY
$$




USA.gov is the U.S. government's official web portal to all federal, state and local government web resources and services.